DW0333 Tranby-Lier NO current weather conditions

sailwx.info

Wind from 109 at 1 knots

Air temperature 12.2° C
Dewpoint 11.8° C

Last reported at 2017-Jul-28 06:08 UTC.
Time now 2017-Jul-28 06:55 UTC

Location: N 59°50' E 010°17'.
View on Google Maps.

See reports from other nearby stations

  
Tides and Currents Weather Stations Pressure Air Temp Water Temp Dewpoint Dewpoint Depression Visibility Wind Speed Wind Dir Waves Ship Positions
date/time (UTC)wind fromknots sea level pressurealtimeterstation pressurevisibilityair tempwater tempwave heightnotes
2017-Jul-28 06:08 109 1 12.2
2017-Jul-28 05:53 084 2 12.2
2017-Jul-28 05:37 079 1 12.2
2017-Jul-28 05:22 109 2 12.2
2017-Jul-28 05:07 096 2 12.2
2017-Jul-28 04:52 116 1 11.7
2017-Jul-28 04:36 065 1 11.7
2017-Jul-28 04:21 096 1 11.7
2017-Jul-28 04:06 069 2 11.7
2017-Jul-28 03:51 047 2 11.7
2017-Jul-28 03:36 081 2 11.7
2017-Jul-28 03:21 058 1 11.7
2017-Jul-28 03:06 063 2 11.7
2017-Jul-28 02:51 043 1 11.7
2017-Jul-28 02:36 052 1 11.7
2017-Jul-28 02:21 058 0 11.7
2017-Jul-28 02:04 049 1 11.7
2017-Jul-28 01:51 067 1 11.7
2017-Jul-28 01:34 060 0 11.7
2017-Jul-28 01:18 057 1 11.7
2017-Jul-28 01:03 081 1 11.7
2017-Jul-28 00:48 075 1 11.7
2017-Jul-28 00:32 104 0 12.2
2017-Jul-28 00:17 057 1 12.2
2017-Jul-28 00:02 082 0 12.2
2017-Jul-27 23:47 084 1 12.2
2017-Jul-27 23:31 063 1 12.2
2017-Jul-27 23:16 077 2 12.2
2017-Jul-27 23:01 088 1 12.2
2017-Jul-27 22:46 085 1 12.2
2017-Jul-27 22:32 069 1 12.2
2017-Jul-27 22:16 067 2 12.2
2017-Jul-27 22:01 084 2 12.8
2017-Jul-27 21:46 117 4 12.8
2017-Jul-27 21:32 113 3 12.8
2017-Jul-27 21:16 079 4 13.3
2017-Jul-27 20:59 108 2 13.3
2017-Jul-27 20:43 070 1 13.3
2017-Jul-27 20:28 054 2 13.3
2017-Jul-27 20:13 067 1 13.3
2017-Jul-27 19:58 089 1 13.3
2017-Jul-27 19:43 067 1 13.3
2017-Jul-27 19:27 067 2 13.3
2017-Jul-27 19:12 046 3 13.3
2017-Jul-27 18:57 057 2 13.3
2017-Jul-27 18:41 062 2 13.3
2017-Jul-27 18:26 043 2 13.3
2017-Jul-27 18:11 055 2 13.9
2017-Jul-27 17:56 064 2 13.9
2017-Jul-27 17:41 057 2 13.9
2017-Jul-27 17:26 065 2 13.9
2017-Jul-27 17:11 097 2 14.4
2017-Jul-27 16:56 125 2 14.4
2017-Jul-27 16:41 106 2 14.4
2017-Jul-27 16:24 122 4 14.4
2017-Jul-27 16:11 102 2 15.0
2017-Jul-27 15:56 098 3 15.0
2017-Jul-27 15:38 100 3 15.0
2017-Jul-27 15:23 084 4 15.0
2017-Jul-27 15:08 087 2 15.0
2017-Jul-27 14:53 093 2 15.0
2017-Jul-27 14:37 085 1 15.0
2017-Jul-27 14:22 119 3 14.4
2017-Jul-27 14:08 122 2 14.4
2017-Jul-27 14:00 104 2 14.4
2017-Jul-27 13:36 065 2 14.4
2017-Jul-27 13:21 086 1 14.4
2017-Jul-27 13:06 102 2 14.4
2017-Jul-27 12:51 110 3 13.9
2017-Jul-27 12:36 115 2 14.4
2017-Jul-27 12:21 117 4 14.4
2017-Jul-27 12:06 127 3 15.0
2017-Jul-27 11:51 062 4 15.6
2017-Jul-27 11:36 142 4 16.1
2017-Jul-27 11:21 121 4 16.1
2017-Jul-27 11:03 053 5 16.1
2017-Jul-27 10:51 069 5 16.7
2017-Jul-27 10:34 077 5 17.2
2017-Jul-27 10:18 150 4 17.2
2017-Jul-27 10:03 090 3 17.2
2017-Jul-27 09:47 106 2 16.7
2017-Jul-27 09:33 130 2 16.1
2017-Jul-27 09:17 115 2 16.1
2017-Jul-27 09:01 108 1 16.1
2017-Jul-27 08:47 067 2 15.6
2017-Jul-27 08:31 027 1 15.6
2017-Jul-27 08:16 103 1 15.0
2017-Jul-27 08:01 043 2 15.0
2017-Jul-27 07:46 073 1 15.0
2017-Jul-27 07:32 094 2 15.0
2017-Jul-27 07:16 101 2 14.4
2017-Jul-27 07:01 096 2 14.4
2017-Jul-27 06:46 079 1 13.9
2017-Jul-27 06:31 059 1 13.9
2017-Jul-27 06:16 089 1 13.9
2017-Jul-27 05:58 059 1 13.3
2017-Jul-27 05:43 047 1 13.3
2017-Jul-27 05:28 048 2 13.3
2017-Jul-27 05:13 080 0 13.3
2017-Jul-27 04:57 069 1 13.3
2017-Jul-27 04:42 052 1 13.3
2017-Jul-27 04:27 042 1 13.3
2017-Jul-27 04:12 030 2 13.3
2017-Jul-27 03:56 071 1 13.3
2017-Jul-27 03:41 038 0 13.3
2017-Jul-27 03:26 056 1 13.3
2017-Jul-27 03:11 058 0 13.3
2017-Jul-27 02:56 055 1 13.3
2017-Jul-27 02:41 048 1 13.3
2017-Jul-27 02:26 064 1 13.3
2017-Jul-27 02:11 060 1 13.3
2017-Jul-27 01:56 047 1 13.3
2017-Jul-27 01:41 060 0 13.3
2017-Jul-27 01:26 067 1 13.3
2017-Jul-27 01:08 071 0 13.3
2017-Jul-27 00:53 063 0 13.3
2017-Jul-27 00:38 056 0 13.9
2017-Jul-27 00:23 039 0 13.9
2017-Jul-27 00:08 047 0 13.9
2017-Jul-26 23:52 046 0 13.9
2017-Jul-26 23:37 071 1 13.9
2017-Jul-26 23:22 071 1 13.9
2017-Jul-26 23:07 060 1 14.4
2017-Jul-26 22:51 058 0 14.4
2017-Jul-26 22:36 049 1 14.4
2017-Jul-26 22:21 052 1 14.4
2017-Jul-26 22:06 099 1 14.4
2017-Jul-26 21:51 094 1 14.4
2017-Jul-26 21:36 051 1 15.0
2017-Jul-26 21:21 048 1 15.0
2017-Jul-26 21:06 046 1 15.0
2017-Jul-26 20:51 060 1 15.6
2017-Jul-26 20:34 070 1 15.6
2017-Jul-26 20:18 048 1 16.1
2017-Jul-26 20:04 067 0 16.1
2017-Jul-26 19:48 047 0 16.7
2017-Jul-26 19:32 059 0 16.7
2017-Jul-26 19:18 055 0 17.2
2017-Jul-26 19:03 019 0 17.8
2017-Jul-26 18:47 019 17.8
2017-Jul-26 18:32 019 18.3
2017-Jul-26 18:17 019 0 18.3
2017-Jul-26 18:01 019 0 18.9
2017-Jul-26 17:46 018 0 18.3
2017-Jul-26 17:32 007 17.8
2017-Jul-26 17:16 344 17.8
2017-Jul-26 17:02 344 18.3
2017-Jul-26 16:46 344 18.3
2017-Jul-26 16:32 344 0 17.8
2017-Jul-26 16:16 293 0 17.8
2017-Jul-26 16:02 132 0 18.3
2017-Jul-26 15:44 293 0 18.3
2017-Jul-26 15:29 040 0 18.3
2017-Jul-26 15:16 040 0 18.3
2017-Jul-26 14:58 256 1 18.3
2017-Jul-26 14:43 336 0 18.3
2017-Jul-26 14:28 333 0 18.3
2017-Jul-26 14:13 306 1 18.9
2017-Jul-26 13:57 295 0 18.3
2017-Jul-26 13:42 311 2 17.8
2017-Jul-26 13:27 319 0 17.2
2017-Jul-26 12:56 317 2 17.2
2017-Jul-26 12:41 275 2 17.8
2017-Jul-26 12:26 308 1 17.8
2017-Jul-26 12:11 285 0 18.3
2017-Jul-26 11:56 342 2 18.3
2017-Jul-26 11:41 340 0 18.3
2017-Jul-26 11:26 326 1 18.3
2017-Jul-26 11:11 317 1 18.3
2017-Jul-26 10:56 065 0 18.3
2017-Jul-26 10:41 241 1 17.8
2017-Jul-26 10:26 025 0 17.2
2017-Jul-26 10:08 290 2 16.7
2017-Jul-26 09:53 286 2 16.7
2017-Jul-26 09:38 292 2 16.1
2017-Jul-26 09:23 311 3 16.1
2017-Jul-26 09:07 302 2 16.1
2017-Jul-26 08:52 282 3 16.1
2017-Jul-26 08:37 310 2 16.1
2017-Jul-26 08:21 293 1 15.6
2017-Jul-26 08:06 299 1 15.6
2017-Jul-26 07:51 074 15.6
2017-Jul-26 07:36 075 15.6
2017-Jul-26 07:21 100 1 15.6
2017-Jul-26 07:06 111 1 15.6
2017-Jul-26 06:51 075 0 15.0
2017-Jul-26 06:36 066 2 15.0
2017-Jul-26 06:21 065 0 14.4
2017-Jul-26 06:06 030 14.4